Date String (YYYY-MM-DD hh:mm:ss) UTC,Instrument flags,absolute air pressure of the measurement (hPa),sample flow rate (lpm),inlet stack bypass flow (lpm),air temperature of the measurement (°C),ambient temperature measured by the external sensor (°C),aerosol sample conditioner tube jacket temperature (°C),OPC LED temperature (°C),internal box temperature (°C),relative humidity of the measurement (%),span deviation,mass concentration of particles derived from Lorenz-Mie calculation of OPC scattering (μg/m³),mass concentration of particles derived from Lorenz-Mie calculation of OPC scattering (μg/m³),mass concentration of particles derived from Lorenz-Mie calculation of OPC scattering (μg/m³)
DateTimeUTC,F1_M11,P_M11,Q1_M11,Q2_M11,T1_M11,T2_M11,T3_M11,T4_M11,T5_M11,U1_M11,ZSPAN_M11,X0_M11,X2_M11,X1_M11
2024-05-02 18:00:00,SystemResetWarning,0825.5,4.99,000.00,024.5,023.9,000.0,032.6,026.2,007.8,0000.0,0005.52,0002.37,0001.38
2024-05-02 18:01:00,SystemResetWarning,0825.5,4.99,000.00,024.5,023.9,000.0,032.6,026.2,007.6,0000.0,0005.77,0002.45,0001.39
2024-05-02 18:02:00,SystemResetWarning,0825.5,5.02,000.00,024.5,023.9,000.0,032.6,026.2,007.0,0000.0,0006.09,0002.53,0001.38
2024-05-02 18:03:00,SystemResetWarning,0825.4,4.99,000.00,024.5,023.9,000.0,032.6,026.2,007.0,0000.0,0006.18,0002.55,0001.38
2024-05-02 18:04:00,SystemResetWarning,0825.4,4.99,000.00,024.5,023.9,000.0,032.6,026.2,007.4,0000.0,0006.14,0002.56,0001.36
2024-05-02 18:05:00,SystemResetWarning,0825.3,5.01,000.00,024.5,023.9,000.0,032.6,026.2,007.3,0000.0,0006.18,0002.58,0001.35
2024-05-02 18:06:00,SystemResetWarning,0825.4,5.01,000.00,024.5,023.9,000.0,032.6,026.2,007.5,0000.0,0006.33,0002.65,0001.36
2024-05-02 18:07:00,SystemResetWarning,0825.3,4.98,000.00,024.5,023.9,000.0,032.6,026.3,007.4,0000.0,0006.13,0002.61,0001.35
2024-05-02 18:08:00,SystemResetWarning,0825.3,5.00,000.00,024.5,023.9,000.0,032.6,026.3,007.8,0000.0,0006.08,0002.59,0001.36
2024-05-02 18:09:00,SystemResetWarning,0825.3,5.00,000.00,024.5,023.9,000.0,032.7,026.3,007.2,0000.0,0006.09,0002.58,0001.36
2024-05-02 18:10:00,SystemResetWarning,0825.3,5.00,000.00,024.6,024.0,000.0,032.7,026.3,007.2,0000.0,0006.28,0002.67,0001.37
2024-05-02 18:11:00,SystemResetWarning,0825.3,5.00,000.00,024.6,024.0,000.0,032.7,026.3,007.4,0000.0,0006.16,0002.76,0001.37
2024-05-02 18:12:00,SystemResetWarning,0825.1,5.00,000.00,024.6,024.0,000.0,032.7,026.3,007.6,0000.0,0006.10,0002.79,0001.36
2024-05-02 18:13:00,SystemResetWarning,0825.1,5.00,000.00,024.6,024.0,000.0,032.7,026.3,008.2,0000.0,0006.09,0002.76,0001.36
2024-05-02 18:14:00,SystemResetWarning,0825.1,5.00,000.00,024.6,024.0,000.0,032.7,026.3,007.8,0000.0,0006.02,0002.77,0001.37
2024-05-02 18:15:00,SystemResetWarning,0825.0,5.00,000.00,024.6,024.0,000.0,032.7,026.3,007.5,0000.0,0005.98,0002.77,0001.39
2024-05-02 18:16:00,SystemResetWarning,0825.1,5.00,000.00,024.6,024.0,000.0,032.7,026.3,007.6,0000.0,0006.07,0002.79,0001.40
2024-05-02 18:17:00,SystemResetWarning,0825.0,5.00,000.00,024.6,024.0,000.0,032.7,026.3,007.7,0000.0,0006.40,0002.80,0001.40
2024-05-02 18:18:00,SystemResetWarning,0825.0,5.00,000.00,024.6,024.0,000.0,032.7,026.3,007.4,0000.0,0007.83,0002.89,0001.41
2024-05-02 18:19:00,SystemResetWarning,0824.9,5.00,000.00,024.6,024.0,000.0,032.8,026.3,007.3,0000.0,0008.54,0002.96,0001.42
2024-05-02 18:20:00,SystemResetWarning,0824.9,5.01,000.00,024.6,024.0,000.0,032.8,026.3,007.2,0000.0,0009.13,0003.03,0001.45
2024-05-02 18:21:00,SystemResetWarning,0824.9,5.00,000.00,024.6,024.0,000.0,032.8,026.3,007.0,0000.0,0009.86,0003.12,0001.47
2024-05-02 18:22:00,SystemResetWarning,0824.9,4.99,000.00,024.6,024.0,000.0,032.8,026.3,007.2,0000.0,0009.87,0003.15,0001.48
2024-05-02 18:23:00,SystemResetWarning,0824.9,5.00,000.00,024.6,024.0,000.0,032.8,026.3,007.3,0000.0,0010.03,0003.22,0001.51
2024-05-02 18:24:00,SystemResetWarning,0824.9,5.00,000.00,024.7,024.0,000.0,032.8,026.4,007.7,0000.0,0010.22,0003.28,0001.52
2024-05-02 18:25:00,SystemResetWarning,0824.9,5.00,000.00,024.7,024.1,000.0,032.8,026.4,007.7,0000.0,0010.59,0003.30,0001.52
2024-05-02 18:26:00,SystemResetWarning,0824.7,5.00,000.00,024.7,024.1,000.0,032.8,026.3,008.0,0000.0,0011.02,0003.33,0001.53
2024-05-02 18:27:00,SystemResetWarning,0824.7,5.00,000.00,024.7,024.1,000.0,032.8,026.4,007.6,0000.0,0011.48,0003.40,0001.57
2024-05-02 18:28:00,SystemResetWarning,0824.7,4.99,000.00,024.7,024.1,000.0,032.8,026.4,009.6,0000.0,0011.37,0003.41,0001.60
2024-05-02 18:29:00,SystemResetWarning,0825.1,5.00,000.00,024.7,024.1,000.0,032.8,026.4,010.7,0000.0,0011.12,0003.40,0001.63
2024-05-02 18:30:00,SystemResetWarning,0824.9,5.00,000.00,024.7,024.1,000.0,032.8,026.4,010.2,0000.0,0010.95,0003.40,0001.66
2024-05-02 18:31:00,SystemResetWarning,0824.8,5.00,000.00,024.7,024.1,000.0,032.8,026.4,010.2,0000.0,0010.53,0003.38,0001.68
2024-05-02 18:32:00,SystemResetWarning,0825.0,5.00,000.00,024.7,024.1,000.0,032.9,026.4,009.8,0000.0,0009.95,0003.33,0001.70
2024-05-02 18:33:00,SystemResetWarning,0825.1,5.01,000.00,024.7,024.1,000.0,032.9,026.4,009.9,0000.0,0010.38,0003.32,0001.73
2024-05-02 18:34:00,SystemResetWarning,0825.1,5.01,000.00,024.7,024.1,000.0,032.9,026.4,010.3,0000.0,0010.25,0003.27,0001.74
2024-05-02 18:35:00,SystemResetWarning,0825.0,5.00,000.00,024.7,024.1,000.0,032.9,026.4,010.1,0000.0,0010.25,0003.27,0001.78
2024-05-02 18:36:00,SystemResetWarning,0825.0,5.00,000.00,024.7,024.1,000.0,032.9,026.4,010.4,0000.0,0010.16,0003.27,0001.80
2024-05-02 18:37:00,SystemResetWarning,0824.9,4.99,000.00,024.7,024.1,000.0,032.9,026.5,010.0,0000.0,0010.11,0003.31,0001.84
2024-05-02 18:38:00,SystemResetWarning,0824.8,4.99,000.00,024.7,024.1,000.0,033.0,026.5,010.0,0000.0,0009.49,0003.28,0001.86
2024-05-02 18:39:00,SystemResetWarning,0824.6,5.01,000.00,024.7,024.1,000.0,033.0,026.5,010.2,0000.0,0009.40,0003.27,0001.87
2024-05-02 18:40:00,SystemResetWarning,0824.7,5.00,000.00,024.7,024.1,000.0,033.0,026.5,010.1,0000.0,0008.90,0003.27,0001.89
2024-05-02 18:41:00,SystemResetWarning,0824.9,5.01,000.00,024.8,024.1,000.0,033.0,026.5,010.2,0000.0,0008.45,0003.32,0001.90
2024-05-02 18:42:00,SystemResetWarning,0824.9,4.99,000.00,024.8,024.2,000.0,033.0,026.6,010.5,0000.0,0008.62,0003.35,0001.91
2024-05-02 18:43:00,SystemResetWarning,0824.9,4.99,000.00,024.8,024.2,000.0,033.0,026.6,010.0,0000.0,0008.24,0003.34,0001.91
2024-05-02 18:44:00,SystemResetWarning,0824.9,5.00,000.00,024.8,024.1,000.0,033.1,026.5,009.6,0000.0,0008.63,0003.35,0001.93
2024-05-02 18:45:00,SystemResetWarning,0824.9,5.01,000.00,024.8,024.1,000.0,033.1,026.6,009.9,0000.0,0008.91,0003.35,0001.95
2024-05-02 18:46:00,SystemResetWarning,0824.9,5.00,000.00,024.8,024.1,000.0,033.1,026.5,009.8,0000.0,0009.52,0003.34,0001.94
2024-05-02 18:47:00,SystemResetWarning,0824.9,5.00,000.00,024.8,024.1,000.0,033.1,026.5,010.0,0000.0,0009.16,0003.33,0001.95
2024-05-02 18:48:00,SystemResetWarning,0824.8,4.99,000.00,024.8,024.1,000.0,033.1,026.6,011.0,0000.0,0009.15,0003.33,0001.95
2024-05-02 18:49:00,SystemResetWarning,0824.8,4.99,000.00,024.8,024.2,000.0,033.1,026.6,010.9,0000.0,0010.25,0003.40,0001.96
2024-05-02 18:50:00,SystemResetWarning,0824.8,5.00,000.00,024.8,024.2,000.0,033.1,026.6,010.6,0000.0,0011.11,0003.45,0001.99
2024-05-02 18:51:00,SystemResetWarning,0824.7,5.01,000.00,024.8,024.2,000.0,033.1,026.6,010.5,0000.0,0012.26,0003.51,0002.01
2024-05-02 18:52:00,SystemResetWarning,0824.7,5.01,000.00,024.8,024.2,000.0,033.2,026.6,010.2,0000.0,0012.96,0003.53,0002.05
2024-05-02 18:53:00,SystemResetWarning,0824.7,5.01,000.00,024.8,024.1,000.0,033.2,026.6,010.1,0000.0,0013.71,0003.56,0002.11
2024-05-02 18:54:00,SystemResetWarning,0824.7,5.00,000.00,024.8,024.1,000.0,033.2,026.6,010.3,0000.0,0013.97,0003.63,0002.15
2024-05-02 18:55:00,SystemResetWarning,0824.7,4.99,000.00,024.8,024.1,000.0,033.2,026.6,010.5,0000.0,0013.37,0003.68,0002.18
2024-05-02 18:56:00,SystemResetWarning,0824.5,5.00,000.00,024.8,024.1,000.0,033.2,026.6,009.8,0000.0,0013.21,0003.71,0002.19
2024-05-02 18:57:00,SystemResetWarning,0824.5,5.00,000.00,024.8,024.1,000.0,033.2,026.6,010.7,0000.0,0012.71,0003.73,0002.23
2024-05-02 18:58:00,SystemResetWarning,0824.5,5.00,000.00,024.8,024.1,000.0,033.2,026.6,009.5,0000.0,0013.24,0003.75,0002.26
2024-05-02 18:59:00,SystemResetWarning,0824.6,5.00,000.00,024.8,024.1,000.0,033.2,026.6,010.1,0000.0,0013.22,0003.76,0002.28
